Home > Weather > Barnaul > Past weeks

Flag for Russia Past Weather in Barnaul, Russia — Yesterday and Last 2 Weeks

Now
72 °F

Passing clouds.


Feels Like: 72 °F
Forecast: 66 / 82 °F
Wind: 6 mph from South

Location: Barnaul Airport

Current Time: Jul 24, 2016 at 9:42:45 PM

Latest Report: Jul 24, 2016 at 9:00 PM


Visibility: N/A

Pressure: 29.65 "Hg

Humidity: 78%

Dew Point: 64 °F

Location of BarnaulLocation

Past Weather in Barnaul — Graph

°F

Barnaul Temperature Yesterday

Maximum temperature yesterday: 82 °F (at 2:30 PM)
Minimum temperature yesterday: 64 °F (at 3:00 AM)
Average temperature yesterday: 74 °F

High & Low Weather Summary for the Past Weeks

 TemperatureHumidityPressure
High84 °F (Jul 13, 3:30 PM)94% (Jul 10, 4:00 AM)29.92 "Hg (Jul 10, 4:00 AM)
Low61 °F (Jul 16, 5:00 AM)40% (Jul 13, 3:30 PM)29.50 "Hg (Jul 17, 4:00 AM)
Average71 °F73%29.68 "Hg
* Reported Jul 9 8:00 PM — Jul 24 8:00 PM, Barnaul, Weather by CustomWeather, © 2016

Note: Actual official high and low records may vary slightly from our data, if they occured in-between our weather recording intervals... More about our weather records

Advertising

Barnaul Weather History for the Previous 24 Hours

Scroll right to see more
 ConditionsComfort  
Time TempWeatherWind HumidityBarometerVisibility
8:00 PM
Sun, Jul 24
73 °FScattered clouds.8 mph69%29.65 "HgN/A
7:30 PM73 °FScattered clouds.8 mph69%29.65 "HgN/A
7:00 PM75 °FScattered clouds.8 mph65%29.65 "HgN/A
6:30 PM75 °FScattered clouds.8 mph65%29.65 "HgN/A
6:00 PM73 °FScattered clouds.10 mph69%29.65 "HgN/A
5:30 PM77 °FScattered clouds.8 mph61%29.65 "HgN/A
5:00 PM75 °FScattered clouds.8 mph65%29.65 "HgN/A
4:30 PM75 °FScattered clouds.10 mph65%29.65 "HgN/A
4:00 PM75 °FScattered clouds.10 mph69%29.65 "HgN/A
3:30 PM77 °FScattered clouds.8 mph57%29.65 "HgN/A
3:00 PM75 °FScattered clouds.6 mph65%29.65 "HgN/A
2:30 PM75 °FScattered clouds.6 mph61%29.65 "HgN/A
2:00 PM73 °FScattered clouds.6 mph65%29.65 "HgN/A
1:30 PM73 °FScattered clouds.3 mph74%29.65 "HgN/A
1:00 PM72 °FSprinkles. Scattered clouds.3 mph78%29.65 "HgN/A
12:30 PM72 °FSprinkles. Partly sunny.8 mph78%29.68 "HgN/A
12:00 PM72 °FPartly sunny.8 mph73%29.65 "HgN/A
11:30 AM73 °FPartly sunny.6 mph74%29.65 "HgN/A
11:00 AM72 °FScattered clouds.6 mph78%29.65 "HgN/A
10:30 AM70 °FScattered clouds.6 mph78%29.65 "HgN/A
10:00 AM70 °FScattered clouds.6 mph78%29.65 "HgN/A
9:30 AM70 °FScattered clouds.6 mph78%29.65 "HgN/A
9:00 AM70 °FScattered clouds.3 mph83%29.65 "HgN/A
8:30 AM68 °FScattered clouds.3 mph88%29.65 "HgN/A
8:00 AM66 °FScattered clouds.3 mph88%29.65 "HgN/A
7:30 AM66 °FPartly sunny.3 mph88%29.62 "HgN/A
7:00 AM66 °FPartly sunny.6 mph88%29.62 "HgN/A
6:30 AM66 °FPartly sunny.8 mph88%29.62 "HgN/A
6:00 AM66 °FPartly sunny.13 mph88%29.62 "HgN/A
5:30 AM66 °FPartly sunny.8 mph88%29.62 "HgN/A
5:00 AM66 °FSprinkles. Partly sunny.8 mph88%29.65 "HgN/A
4:30 AM68 °FPartly sunny.10 mph88%29.65 "HgN/A
4:00 AM68 °FPassing clouds.10 mph88%29.65 "HgN/A
3:30 AM70 °FThunderstorms. Passing clouds.13 mph83%29.65 "HgN/A
3:00 AM72 °FThunderstorms. Passing clouds.15 mph78%29.65 "HgN/A
2:30 AM72 °FThunderstorms. Passing clouds.8 mph78%29.62 "HgN/A
2:00 AM73 °FPassing clouds.8 mph74%29.65 "HgN/A
1:30 AM75 °FPassing clouds.6 mph69%29.62 "HgN/A
1:00 AM75 °FPassing clouds.3 mph69%29.65 "HgN/A
12:30 AM75 °FPassing clouds.3 mph69%29.65 "HgN/A
12:00 AM75 °FPassing clouds.3 mph69%29.65 "HgN/A
11:30 PM
Sat, Jul 23
77 °FPassing clouds.3 mph65%29.65 "HgN/A
11:00 PM77 °FPassing clouds.3 mph65%29.65 "HgN/A
10:30 PM77 °FPassing clouds.3 mph65%29.65 "HgN/A
10:00 PM77 °FPassing clouds.3 mph61%29.65 "HgN/A
9:30 PM77 °FPassing clouds.3 mph61%29.65 "HgN/A
9:00 PM79 °FPassing clouds.3 mph58%29.65 "HgN/A
Weather by CustomWeather, © 2016

See weather overviewHow to use our weather pages